NOAA 21 (JPSS-2)

Last updated on Mon Feb 10 2025 00:02:21 GMT+0000 (Coordinated Universal Time)

1 54234U 22150A 25040.55819597 .00000201 00000+0 11597-3 0 9996 2 54234 98.7163 341.2420 0002055 137.2600 222.8736 14.19533957116657
UTC large
Height (km)
Speed (km/s)
/
Latitude / Longitude
Inclination (degrees)
Orbital Period (minutes)
Azimuth
Elevation
Range (km)
Doppler Factor

Next 0 passes for location: London (51.5072 / 0.1276)

Sorry there are no passes over London.